Location: Unspecified
(0.0000°N, 0.0000°E)
Time: 03:52:18
(UTC+00:00)

Vanguard 3 - Pass Details

Date: 19 April 2021
Orbit: 507 x 3262 km, 33.4° (Epoch: 17 May)

Event Time Altitude Azimuth Distance (km) Brightness Sun altitude
Rises 20:56:02 0° 233° (SW) 6,795 12.2 -43.1°
Reaches altitude 10° 21:01:07 10° 232° (SW) 5,458 11.6 -44.4°
Enters shadow 21:11:57 49° 225° (SW) 2,505 9.5 -47.0°
